Location: Melizzano
(41.1500°N, 14.5000°E)
Time: 04:06:31
(UTC+00:00)

Ariane Rocket - Pass Details

Date: 11 May 2021
Orbit: 761 x 769 km, 98.7° (Epoch: 14 June)

Event Time Altitude Azimuth Distance (km) Brightness Sun altitude
Exits shadow 19:10:31 - 164° (SSE) 2,551 5.2 -10.7°
Reaches altitude 10° 19:11:11 10° 164° (SSE) 2,286 5.0 -10.8°
Maximum altitude 19:16:13 88° 78° (ENE) 768 3.0 -11.6°
Drops below altitude 10° 19:21:19 10° 347° (NNW) 2,306 6.3 -12.3°
Sets 19:23:38 0° 347° (NNW) 3,238 7.1 -12.7°
